Overview Statistics Trail Chart Weather Telemetry Raw packets
 

This is the latest recevied weather packets stored in our database for station/object HS5AU-13. If no packets are shown the sender has not sent any weather packets the latest 10 day(s).

<< 45 46 47 48 49 50 51 >>
Time Temp. Humidity Pressure Rain* Wind** Luminosity Snow
1787879699 22.78° C 99% 1002.7 hPa 0 mm - 66 W/m² -
1787879099 22.78° C 99% 1002.1 hPa 0 mm - 68 W/m² -
1787878499 22.78° C 99% 1001.8 hPa 0 mm - 101 W/m² -
1787877899 22.78° C 99% 1001.7 hPa 0 mm - 114 W/m² -
1787877299 22.78° C 99% 1001.7 hPa 0 mm - 84 W/m² -
1787876699 22.22° C 99% 1001.8 hPa 0 mm - 109 W/m² -
1787876099 22.22° C 99% 1002.2 hPa 0 mm - 79 W/m² -
1787875499 21.67° C 99% 1002 hPa 0 mm - 51 W/m² -
1787874899 22.22° C 99% 1001.7 hPa 0 mm - 43 W/m² -
1787874299 22.22° C 99% 1001.7 hPa 0 mm - 19 W/m² -
1787873699 21.67° C 99% 1001.4 hPa 0 mm - 15 W/m² -
1787873099 21.67° C 99% 1001.3 hPa 0 mm - 11 W/m² -
1787872499 21.67° C 99% 1001.3 hPa 0 mm - 5 W/m² -
1787871899 21.67° C 99% 1001.3 hPa 0 mm - 2 W/m² -
1787871299 21.67° C 99% 1001.2 hPa 0 mm - 2 W/m² -
1787870699 21.67° C 99% 1001.2 hPa 0 mm - 2 W/m² -
1787870099 21.67° C 99% 1001.2 hPa 0 mm - 2 W/m² -
1787869499 21.67° C 99% 1001.2 hPa 0 mm - 2 W/m² -
1787868899 21.67° C 99% 1000.6 hPa 0 mm - 2 W/m² -
1787868299 21.67° C 99% 1000.3 hPa 0 mm - 2 W/m² -
1787867699 22.22° C 99% 1000 hPa 0 mm - 2 W/m² -
1787867099 21.67° C 99% 1000.2 hPa 0 mm - 2 W/m² -
1787866499 21.67° C 99% 1000.1 hPa 0 mm - 2 W/m² -
1787865899 21.67° C 99% 999.9 hPa 0 mm - 2 W/m² -
1787865299 22.22° C 99% 999.9 hPa 0 mm - 2 W/m² -

* Rain latest hour (hover to see other rain measurements)
** Current wind speed in m/s (hover to see current wind gust speed)